{"data":{"norad_id":62625,"epoch":"2026-05-25T03:34:16.051296Z","epoch_age_seconds":61931,"freshness":"FRESH","line1":"1 62625U 25009S   26145.14879689  .00011006  00000+0  39757-3 0  9998","line2":"2 62625  97.4020 227.1104 0004965  52.7896 307.3796 15.28634230 75385","mean_motion":15.2863423,"eccentricity":0.0004965,"inclination_deg":97.402,"raan_deg":227.1104,"arg_perigee_deg":52.7896,"mean_anomaly_deg":307.3796,"bstar":0.00039757,"rev_number":7538,"period_min":94.201737193861,"perigee_km":476.48915404702,"apogee_km":483.29917899538,"semimajor_km":6858.0311665212,"source":"CELESTRAK","updated_at":"2026-05-25T13:38:13.336618Z"}}